Powrót do katalogu

FENGYUN 1C DEB

AktywnyPO
NORAD 31744·DEBRIS·🇨🇳 China

Wystrzelony May 10, 1999 z Taiyuan Satellite Launch Center

Loading…

Następne Przeloty (najbliższe 24 godziny)

TLE

ŚwieżeSource: Space-Track

Epoka: Sep 13, 2026, 14:14 UTC

1 31744U 99025CET 26256.59367439  .00002728  00000-0  81609-3 0  9997
2 31744  99.3233  26.7604 0302794 347.1180  12.2380 14.20522035985129

Śledź FENGYUN 1C DEB w czasie rzeczywistym z AllMySat

Download on the App Store